• In Deutschland
  • Länderverzeichnis
  • Für 7 Tage
  • Wassertemperatur
  • Satellitenkarten
  • Wetterkarte
  • Widgets
  • user-avatar
    Anmelden

    Stündliche Wetter Bregenz

    Heute, 23 April, Sonntag

    Zeit Temperatur Niederschläge Wind Luftdruck Luftfeuchtigkeit
    00:00 +1°C° 0,3 mm 1 m/S 646 mmHg 98%
    01:00 0°C° 0 mm 1 m/S 646 mmHg 98%
    02:00 0°C° 0,1 mm 1 m/S 646 mmHg 98%
    03:00 -1°C° 0,1 mm 1 m/S 646 mmHg 98%
    04:00 -1°C° 0,1 mm 1 m/S 646 mmHg 98%
    05:00 -1°C° 0 mm 1 m/S 646 mmHg 97%
    06:00 0°C° 0 mm 1 m/S 647 mmHg 96%
    07:00 +1°C° 0 mm 1 m/S 647 mmHg 94%
    08:00 +2°C° 0 mm 1 m/S 647 mmHg 91%
    09:00 +3°C° 0 mm 1 m/S 647 mmHg 87%
    10:00 +4°C° 0 mm 1 m/S 647 mmHg 84%
    11:00 +5°C° 0 mm 1 m/S 647 mmHg 80%
    12:00 +5°C° 0 mm 1 m/S 647 mmHg 77%
    13:00 +6°C° 0 mm 1 m/S 647 mmHg 74%
    14:00 +6°C° 0 mm 1 m/S 647 mmHg 73%
    15:00 +5°C° 0 mm 2 m/S 647 mmHg 72%
    16:00 +5°C° 0 mm 2 m/S 647 mmHg 71%
    17:00 +4°C° 0 mm 2 m/S 647 mmHg 78%
    18:00 +2°C° 0 mm 2 m/S 646 mmHg 84%
    19:00 -1°C° 0 mm 2 m/S 646 mmHg 90%
    20:00 -2°C° 0 mm 2 m/S 646 mmHg 92%
    21:00 -3°C° 0 mm 2 m/S 646 mmHg 93%
    22:00 -4°C° 0 mm 2 m/S 646 mmHg 94%
    23:00 -4°C° 0 mm 2 m/S 646 mmHg 94%

    Morgen, 24 April, Montag

    Zeit Temperatur Niederschläge Wind Luftdruck Luftfeuchtigkeit
    00:00 -5°C° 0 mm 2 m/S 646 mmHg 93%
    01:00 -5°C° 0 mm 2 m/S 645 mmHg 92%
    02:00 -3°C° 0 mm 1 m/S 645 mmHg 91%
    03:00 -3°C° 0 mm 1 m/S 645 mmHg 90%
    04:00 -4°C° 0 mm 1 m/S 644 mmHg 89%
    05:00 -2°C° 0 mm 1 m/S 645 mmHg 86%
    06:00 0°C° 0 mm 1 m/S 645 mmHg 84%
    07:00 +1°C° 0 mm 1 m/S 645 mmHg 81%
    08:00 +4°C° 0 mm 1 m/S 646 mmHg 75%
    09:00 +7°C° 0 mm 1 m/S 646 mmHg 68%
    10:00 +9°C° 0 mm 1 m/S 647 mmHg 62%
    11:00 +10°C° 0 mm 1 m/S 646 mmHg 59%
    12:00 +11°C° 0 mm 1 m/S 646 mmHg 56%
    13:00 +12°C° 0 mm 1 m/S 646 mmHg 53%
    14:00 +12°C° 0,1 mm 1 m/S 646 mmHg 55%
    15:00 +12°C° 0,1 mm 2 m/S 645 mmHg 57%
    16:00 +12°C° 0,1 mm 2 m/S 645 mmHg 60%
    17:00 +9°C° 0,1 mm 1 m/S 644 mmHg 70%
    18:00 +7°C° 0,1 mm 1 m/S 643 mmHg 80%
    19:00 +4°C° 0,1 mm 1 m/S 642 mmHg 90%
    20:00 +4°C° 0 mm 1 m/S 642 mmHg 91%
    21:00 +3°C° 0 mm 2 m/S 642 mmHg 91%
    22:00 +2°C° 0 mm 2 m/S 642 mmHg 91%
    23:00 +2°C° 0,1 mm 2 m/S 642 mmHg 91%

    übermorgen, 25 April, Dienstag

    Zeit Temperatur Niederschläge Wind Luftdruck Luftfeuchtigkeit
    00:00 +2°C° 0,1 mm 2 m/S 641 mmHg 92%
    01:00 +1°C° 0,1 mm 2 m/S 641 mmHg 92%
    02:00 +1°C° 0,1 mm 2 m/S 641 mmHg 91%
    03:00 +2°C° 0,1 mm 2 m/S 640 mmHg 91%
    04:00 +2°C° 0,1 mm 2 m/S 640 mmHg 91%
    05:00 +3°C° 0,1 mm 2 m/S 640 mmHg 89%
    06:00 +3°C° 0,1 mm 2 m/S 640 mmHg 88%
    07:00 +4°C° 0,1 mm 2 m/S 640 mmHg 86%
    08:00 +6°C° 0,1 mm 2 m/S 640 mmHg 81%
    09:00 +7°C° 0,1 mm 2 m/S 641 mmHg 75%
    10:00 +9°C° 0,1 mm 3 m/S 641 mmHg 70%
    11:00 +9°C° 0,6 mm 3 m/S 641 mmHg 73%
    12:00 +9°C° 0,6 mm 3 m/S 640 mmHg 77%
    13:00 +7°C° 0,6 mm 4 m/S 640 mmHg 80%
    14:00 +7°C° 1,5 mm 3 m/S 639 mmHg 85%
    15:00 +5°C° 1,5 mm 3 m/S 639 mmHg 89%
    16:00 +5°C° 1,5 mm 2 m/S 639 mmHg 94%
    17:00 +4°C° 1,7 mm 2 m/S 638 mmHg 95%
    18:00 +3°C° 1,7 mm 2 m/S 638 mmHg 96%
    19:00 +3°C° 1,7 mm 1 m/S 638 mmHg 98%
    20:00 +2°C° 1,7 mm 2 m/S 638 mmHg 98%
    21:00 +1°C° 1,7 mm 2 m/S 638 mmHg 98%
    22:00 +1°C° 1,7 mm 2 m/S 638 mmHg 98%
    23:00 -1°C° 1,7 mm 2 m/S 638 mmHg 98%

    26 April, Mittwoch

    Zeit Temperatur Niederschläge Wind Luftdruck Luftfeuchtigkeit
    00:00 -2°C° 1,7 mm 2 m/S 638 mmHg 98%
    01:00 0°C° 1,7 mm 1 m/S 638 mmHg 98%
    02:00 -1°C° 1,3 mm 1 m/S 638 mmHg 98%
    03:00 -1°C° 1,3 mm 1 m/S 638 mmHg 98%
    04:00 -2°C° 1,3 mm 1 m/S 638 mmHg 98%
    05:00 -2°C° 0,9 mm 1 m/S 638 mmHg 98%
    06:00 -4°C° 0,9 mm 2 m/S 638 mmHg 98%
    07:00 -4°C° 0,9 mm 2 m/S 638 mmHg 98%
    08:00 -3°C° 0,9 mm 2 m/S 638 mmHg 98%
    09:00 -3°C° 0,9 mm 2 m/S 638 mmHg 98%
    10:00 -4°C° 0,9 mm 3 m/S 638 mmHg 98%
    11:00 -4°C° 0,8 mm 3 m/S 638 mmHg 98%
    12:00 -2°C° 0,8 mm 3 m/S 638 mmHg 98%
    13:00 -2°C° 0,8 mm 3 m/S 638 mmHg 98%
    14:00 -2°C° 0,4 mm 3 m/S 638 mmHg 98%
    15:00 -2°C° 0,4 mm 3 m/S 638 mmHg 98%
    16:00 -2°C° 0,4 mm 2 m/S 638 mmHg 97%
    17:00 -2°C° 0,4 mm 2 m/S 638 mmHg 98%
    18:00 -3°C° 0,4 mm 2 m/S 638 mmHg 98%
    19:00 -3°C° 0,4 mm 2 m/S 638 mmHg 98%
    20:00 -2°C° 0,5 mm 1 m/S 638 mmHg 98%
    21:00 -2°C° 0,5 mm 1 m/S 638 mmHg 98%
    22:00 -3°C° 0,5 mm 1 m/S 638 mmHg 98%
    23:00 -3°C° 0,5 mm 1 m/S 638 mmHg 98%

    27 April, Donnerstag

    Zeit Temperatur Niederschläge Wind Luftdruck Luftfeuchtigkeit
    00:00 -3°C° 0,5 mm 1 m/S 638 mmHg 98%
    01:00 -3°C° 0,5 mm 1 m/S 638 mmHg 98%
    02:00 -3°C° 0,6 mm 1 m/S 638 mmHg 98%
    03:00 -3°C° 0,6 mm 1 m/S 638 mmHg 98%
    04:00 -3°C° 0,6 mm 1 m/S 638 mmHg 98%
    05:00 -3°C° 0,7 mm 1 m/S 638 mmHg 98%
    06:00 -3°C° 0,7 mm 1 m/S 638 mmHg 98%
    07:00 -3°C° 0,7 mm 1 m/S 638 mmHg 98%
    08:00 -4°C° 0,9 mm 2 m/S 638 mmHg 98%
    09:00 -4°C° 0,9 mm 2 m/S 639 mmHg 98%
    10:00 -4°C° 0,9 mm 2 m/S 639 mmHg 98%
    11:00 -4°C° 1,1 mm 2 m/S 639 mmHg 98%
    12:00 -3°C° 1,1 mm 2 m/S 639 mmHg 98%
    13:00 -3°C° 1,1 mm 2 m/S 639 mmHg 98%
    14:00 -3°C° 0,7 mm 2 m/S 639 mmHg 98%
    15:00 -3°C° 0,7 mm 2 m/S 639 mmHg 98%
    16:00 -3°C° 0,7 mm 2 m/S 639 mmHg 98%
    17:00 -4°C° 0,6 mm 2 m/S 640 mmHg 98%
    18:00 -4°C° 0,6 mm 2 m/S 640 mmHg 99%
    19:00 -2°C° 0,6 mm 1 m/S 640 mmHg 99%
    20:00 -2°C° 1,1 mm 1 m/S 640 mmHg 99%
    21:00 -3°C° 1,1 mm 1 m/S 640 mmHg 99%
    22:00 -3°C° 1,1 mm 1 m/S 641 mmHg 99%
    23:00 -3°C° 1 mm 1 m/S 641 mmHg 98%

    28 April, Freitag

    Zeit Temperatur Niederschläge Wind Luftdruck Luftfeuchtigkeit
    00:00 -3°C° 1 mm 1 m/S 641 mmHg 98%
    01:00 -3°C° 1 mm 1 m/S 641 mmHg 98%
    02:00 -3°C° 0,8 mm 1 m/S 641 mmHg 98%
    03:00 -5°C° 0,8 mm 2 m/S 641 mmHg 98%
    04:00 -5°C° 0,8 mm 2 m/S 641 mmHg 98%
    05:00 -5°C° 0,8 mm 2 m/S 641 mmHg 98%
    06:00 -5°C° 0,8 mm 2 m/S 642 mmHg 99%
    07:00 -4°C° 0,8 mm 2 m/S 642 mmHg 99%
    08:00 -4°C° 0,4 mm 2 m/S 642 mmHg 99%
    09:00 -4°C° 0,4 mm 2 m/S 643 mmHg 99%
    10:00 -3°C° 0,4 mm 2 m/S 643 mmHg 99%
    11:00 -3°C° 0,2 mm 2 m/S 643 mmHg 99%
    12:00 -2°C° 0,2 mm 2 m/S 643 mmHg 98%
    13:00 -2°C° 0,2 mm 2 m/S 644 mmHg 98%
    14:00 -2°C° 0,2 mm 2 m/S 644 mmHg 98%
    15:00 0°C° 0,2 mm 1 m/S 644 mmHg 98%
    16:00 0°C° 0,2 mm 1 m/S 644 mmHg 97%
    17:00 -1°C° 0,1 mm 1 m/S 644 mmHg 98%
    18:00 -2°C° 0,1 mm 1 m/S 644 mmHg 98%
    19:00 -3°C° 0,1 mm 1 m/S 644 mmHg 98%
    20:00 -4°C° 0,1 mm 1 m/S 644 mmHg 98%
    21:00 -6°C° 0,1 mm 1 m/S 644 mmHg 98%
    22:00 -7°C° 0,1 mm 1 m/S 645 mmHg 98%
    23:00 -7°C° 0,1 mm 1 m/S 644 mmHg 98%
    Mehr zeigen